Home > Time Zones > World Clock > Weather > U.S.A. > Adak > Past weeks

Flag for U.S.A. Weather past 2 weeks in Adak, Alaska, U.S.A.

Now
41 °F

Mostly cloudy.


Feels Like: 32 °F
Forecast: 40 / 44 °F
Wind: 17 mph from Southwest

Location: Adak

Current Time: May 29, 2015 at 7:40:21 AM

Latest Report: May 29, 2015 at 7:16 AM


Visibility: 10 mi

Pressure: 29.72 "Hg

Humidity: 76%

Dew point: 34 °F

Location of AdakLocation

Historic Weather in Adak — Graph

°F

Adak temperature yesterday

Maximum temperature yesterday: 46 °F (at 5:16 PM)
Minimum temperature yesterday: 39 °F (at 12:16 AM)
Average temperature yesterday: 43 °F

Past Weeks' High & Low Weather Summary

 TemperatureHumidityPressure
High48 °F (May 19, 3:16 PM)87% (May 16, 6:56 AM)30.13 "Hg (May 16, 6:56 AM)
Low37 °F (May 14, 6:36 AM)49% (May 20, 8:56 PM)29.02 "Hg (May 22, 6:56 AM)
Average42 °F74%29.52 "Hg
* Reported May 14 6:16 AM — May 29 6:36 AM, Adak, Weather by CustomWeather, © 2015

Note: Actual official high and low records may vary slightly from our data, if they occured in-between our weather recording intervals... More about our weather records

Advertising

Adak weather history for previous 24 hours

 ConditionsComfort  
Time TempWeatherWind HumidityBarometerVisibility
6:36 AM
Fri, May 29
41 °FMostly cloudy.18 mph76%29.71 "Hg10 mi
6:16 AM41 °FPartly cloudy.22 mph76%29.70 "Hg10 mi
5:56 AM41 °FOvercast.16 mph76%29.69 "Hg10 mi
5:36 AM41 °FPartly cloudy.22 mph70%29.68 "Hg10 mi
5:16 AM41 °FMostly cloudy.24 mph76%29.66 "Hg10 mi
4:56 AM41 °FPartly cloudy.23 mph76%29.66 "Hg10 mi
4:36 AM43 °FMostly cloudy.22 mph71%29.65 "Hg10 mi
4:16 AM41 °FMostly cloudy.25 mph70%29.64 "Hg10 mi
3:56 AM41 °FOvercast.23 mph70%29.63 "Hg10 mi
3:36 AM43 °FMostly cloudy.24 mph71%29.62 "Hg10 mi
3:16 AM41 °FPartly cloudy.22 mph76%29.61 "Hg10 mi
2:56 AM43 °FPartly cloudy.24 mph71%29.61 "Hg10 mi
2:36 AM43 °FOvercast.29 mph71%29.60 "Hg10 mi
2:16 AM41 °FMostly cloudy.30 mph76%29.59 "Hg10 mi
1:56 AM41 °FMostly cloudy.24 mph76%29.58 "Hg10 mi
1:36 AM41 °FOvercast.28 mph76%29.58 "Hg10 mi
1:16 AM41 °FPartly cloudy.24 mph76%29.57 "Hg10 mi
12:56 AM41 °FOvercast.29 mph76%29.56 "Hg10 mi
12:36 AM43 °FPartly cloudy.25 mph71%29.55 "Hg10 mi
12:16 AM41 °FOvercast.24 mph76%29.55 "Hg10 mi
11:56 PM
Thu, May 28
43 °FOvercast.25 mph71%29.54 "Hg5 mi
11:36 PM43 °FMostly cloudy.23 mph66%29.52 "Hg10 mi
11:16 PM43 °FOvercast.25 mph66%29.52 "Hg10 mi
10:56 PM43 °FMostly cloudy.26 mph71%29.50 "Hg10 mi
10:36 PM43 °FBroken clouds.25 mph71%29.49 "Hg10 mi
10:16 PM43 °FBroken clouds.30 mph71%29.48 "Hg10 mi
9:56 PM43 °FCloudy.25 mph71%29.48 "Hg9 mi
9:36 PM43 °FCloudy.26 mph71%29.46 "Hg10 mi
9:16 PM43 °FCloudy.28 mph66%29.45 "Hg10 mi
8:56 PM43 °FCloudy.29 mph66%29.45 "Hg10 mi
8:36 PM43 °FCloudy.31 mph71%29.43 "Hg9 mi
8:16 PM45 °FBroken clouds.28 mph66%29.42 "Hg10 mi
7:56 PM45 °FCloudy.33 mph66%29.41 "Hg10 mi
7:36 PM45 °FMostly cloudy.31 mph66%29.40 "Hg10 mi
6:56 PM45 °FBroken clouds.33 mph66%29.39 "Hg9 mi
6:36 PM45 °FMostly cloudy.32 mph66%29.37 "Hg9 mi
6:16 PM45 °FCloudy.35 mph71%29.37 "Hg10 mi
5:56 PM46 °FCloudy.29 mph62%29.36 "Hg10 mi
5:36 PM45 °FCloudy.30 mph66%29.36 "Hg10 mi
5:16 PM46 °FBroken clouds.36 mph62%29.34 "Hg10 mi
4:56 PM45 °FCloudy.33 mph66%29.34 "Hg10 mi
4:36 PM45 °FMore clouds than sun.32 mph71%29.34 "Hg10 mi
4:16 PM45 °FOvercast.35 mph71%29.32 "Hg10 mi
3:56 PM45 °FMostly cloudy.32 mph71%29.32 "Hg9 mi
3:36 PM45 °FMore clouds than sun.33 mph71%29.31 "Hg9 mi
2:56 PM45 °FCloudy.32 mph71%29.32 "Hg10 mi
2:36 PM45 °FMostly cloudy.33 mph71%29.32 "Hg7 mi
1:56 PM43 °FBroken clouds.28 mph76%29.31 "Hg4 mi
1:16 PM45 °FMore clouds than sun.31 mph71%29.30 "Hg10 mi
12:56 PM43 °FMore clouds than sun.33 mph71%29.30 "Hg4 mi
12:36 PM43 °FMore clouds than sun.36 mph71%29.30 "Hg5 mi
12:16 PM43 °FMore clouds than sun.32 mph76%29.29 "Hg4 mi
11:56 AM43 °FOvercast.36 mph71%29.29 "Hg5 mi
11:36 AM43 °FCloudy.33 mph71%29.29 "Hg10 mi
11:16 AM43 °FMostly cloudy.26 mph71%29.29 "Hg5 mi
10:56 AM43 °FMostly cloudy.36 mph71%29.28 "Hg9 mi
10:36 AM43 °FCloudy.33 mph71%29.28 "Hg9 mi
10:16 AM43 °FCloudy.24 mph71%29.28 "Hg4 mi
9:56 AM43 °FCloudy.26 mph71%29.28 "Hg6 mi
9:36 AM43 °FMostly cloudy.25 mph71%29.28 "Hg8 mi
9:16 AM41 °FCloudy.35 mph76%29.28 "Hg7 mi
8:56 AM41 °FMostly cloudy.28 mph76%29.29 "Hg9 mi
8:36 AM41 °FOvercast.21 mph76%29.28 "Hg6 mi
8:16 AM41 °FOvercast.30 mph76%29.28 "Hg9 mi
7:56 AM41 °FMore clouds than sun.24 mph76%29.28 "Hg10 mi
7:36 AM41 °FMostly cloudy.20 mph76%29.28 "Hg5 mi
7:16 AM43 °FMostly cloudy.17 mph76%29.28 "Hg4 mi
Weather by CustomWeather, © 2015

See weather overviewHow to use our weather pages